Regional Weather Roundup
Issued by NWS

Home | Current Version | Previous Version | Text Only | Print | Product List | Glossary On
Versions: 1 2 3 4 5 6 7 8 9 10 11 12 13 14 15 16 17 18 19 20 21 22 23 24 25 26 27 28 29 30 31 32 33 34 35 36 37 38 39 40 41 42 43 44 45 46 47 48 49 50
000
ASUS42 KTBW 252317
RWRFL
FLORIDA REGIONAL WEATHER ROUNDUP
NATIONAL WEATHER SERVICE TAMPA BAY RUSKIN FL
700 PM EDT TUE APR 25 2017

NOTE: "FAIR" INDICATES FEW OR NO CLOUDS BELOW 12,000 FEET WITH NO
SIGNIFICANT WEATHER AND/OR OBSTRUCTIONS TO VISIBILITY.

FLZ001>010-012>015-112-114-115-260000-
PANHANDLE FLORIDA

CITY           SKY/WX    TMP DP  RH WIND       PRES   REMARKS
PENSACOLA      SUNNY     77  56  48 SW17      29.77S
PENSACOLA NAS  MOSUNNY   74  56  53 SW9       29.77S
MILTON NAS     MOSUNNY   75  59  57 S13       29.76S
CRESTVIEW      CLOUDY    80  56  43 SW10      29.77S
DUKE FIELD     MOSUNNY   78  56  47 SW13      29.75S
VALPARAISO     MOSUNNY   75  60  58 W15       29.77S
MARY ESTHER    SUNNY     74  56  51 SW9       29.77S
PANAMA CITY    FAIR      75  56  51 SW9       29.77S
TYNDALL AFB    MOSUNNY   74  60  59 SW12      29.79S
APALACHICOLA   SUNNY     74  59  59 SW12      29.79S

STATION/POSITION SKY/WX   TEMP    WIND        PRES    WAVE   SWELL
                          AIR SEA DIR/SP/G            HT/PER HT/PER
                          (F)     (DEG/KT/KT) (MB)    (FT/S) (FT/S)
30.1N   87.6W              72 74  250/ 10/ 12 1008.4F   2/ 4
29.2N   88.2W              72 75  210/  8/ 10 1009.0
28.8N   86.0W              73 74  260/ 10/ 12 1009.1F   2/ 5   2/ 5
PANAMA CITY BEAC           72 75  240/ 10/ 11 1009.0S
TOWER C                    72     250/  7/  9 1009.8S
28.5N   84.5W              73 73  250/ 10/ 12 1009.5F   2/ 5   2/ 5

$$
FLZ011-016>038-118-127-128-134-139-239-260000-
NORTH FLORIDA

CITY           SKY/WX    TMP DP  RH WIND       PRES   REMARKS
MARIANNA       SUNNY     80  51  36 W8        29.74F
TALLAHASSEE    MOSUNNY   77  60  55 S9        29.76S
PERRY          MOSUNNY   73  57  57 SW12      29.80S
CROSS CITY     SUNNY     73  54  49 W9        29.80S
LAKE CITY      FAIR      75  55  50 SW9       29.77R
GAINESVILLE    PTSUNNY   74  54  49 W14       29.78R
WILLISTON      SUNNY     75  54  46 S10G16    29.80S
PALATKA        FAIR      77  55  47 W10       29.77R
MAYPORT NAS    PTSUNNY   78  54  43 SW10      29.73S
JACKSONVILLE   PTSUNNY   79  55  43 SW9       29.73R
JAX NAS        PTSUNNY   81  54  39 W13       29.75S
FERNANDINA BEA CLOUDY    81  55  41 W3        29.72S
ST AUGUSTINE   CLOUDY    81  54  39 W8        29.76R
PALM COAST     SUNNY     75  79 100 VRB6      29.76

STATION/POSITION SKY/WX   TEMP    WIND        PRES    WAVE   SWELL
                          AIR SEA DIR/SP/G            HT/PER HT/PER
                          (F)     (DEG/KT/KT) (MB)    (FT/S) (FT/S)
SHELL POINT      NOT AVBL
KEATON BEACH               71     240/ 12/ 13 1008.6F
CEDAR KEY                  72     270/  7/  9 1009.9F
FERNANDINA                 79 75  240/  4/  6 1007.5R
30.7N   81.3W                 73                N/A     3/10   2/11
MAYPORT                    80 74  250/  9/ 14 1007.2S
31.4N   80.9W              73 72  180/ 12/ 14 1005.9S   3/ 9   3/ 9
ST AUGUSTINE               73 74  160/ 17/ 18 1008.2R

$$
FLZ040-043>046-052-053-057-058-063-144-260000-
INTERIOR CENTRAL FLORIDA

CITY           SKY/WX    TMP DP  RH WIND       PRES   REMARKS
OCALA          SUNNY     73  52  46 SW12G17   29.81R
THE VILLAGES     N/A     75  55  50 MISG      29.71R
LEESBURG       SUNNY     74  57  55 W10       29.81R
SANFORD        SUNNY     80  53  39 W13       29.77S
ORLANDO EXEC   MOSUNNY   80  53  39 W10G18    29.78R
ORLANDO INTL   PTSUNNY   80  51  36 SW9       29.79R
KISSIMMEE      SUNNY     80  53  39 W10       29.80R
WINTER HAVEN   SUNNY     77  49  37 W13       29.82R
BARTOW         FAIR      77  50  38 SW16      29.82S
OKEECHOBEE     SUNNY     81  52  36 SW15      29.81R

$$
FLZ041-047-054-059-064-141-147-260000-
EAST CENTRAL FLORIDA

CITY           SKY/WX    TMP DP  RH WIND       PRES   REMARKS
ORMOND BEACH   SUNNY     79  57  47 SW12G17   29.77R
DAYTONA BEACH  PTSUNNY   78  56  46 SW13      29.77R
DELAND         MOSUNNY   79  55  44 W9        29.77S
NEW SMYRNA BEA MOSUNNY   77  54  44 SW14      29.77S
JFK SPACE CTR  MOSUNNY   81  55  40 S9        29.77R
TITUSVILLE     SUNNY     82  52  34 SW12      29.78S
CAPE CANAVERAL MOSUNNY   76  59  55 S13       29.77R
PATRICK AFB    SUNNY     76  60  58 SE12      29.79R
MELBOURNE      SUNNY     77  59  53 SE13      29.79R
VERO BEACH     SUNNY     76  60  57 E9        29.81R
FT PIERCE      SUNNY     77  62  59 E9        29.80R
STUART         MOSUNNY   82  55  39 W14       29.81S

STATION/POSITION SKY/WX   TEMP    WIND        PRES    WAVE   SWELL
                          AIR SEA DIR/SP/G            HT/PER HT/PER
                          (F)     (DEG/KT/KT) (MB)    (FT/S) (FT/S)
28.5N   80.2W              74 76  160/ 12/ 14 1009.6R   3/11   2/11
28.9N   78.5W              72 78  250/ 12/ 16 1009.5R   5/ 9   5/ 9
TRIDENT PIER               74 78  150/ 11/ 15 1010.1R
28.4N   80.5W                 76                N/A     2/11   2/11
27.5N   80.2W                 76                N/A     3/11   2/11

$$
FLZ050-056-061-142-242-148-248-149-249-151-251-155-255-
160-260-260000-
WEST CENTRAL FLORIDA

CITY           SKY/WX    TMP DP  RH WIND       PRES   REMARKS
CRYSTAL RIVER  FAIR      72  55  56 W10       29.82S
INVERNESS      FAIR      72  55  56 SW6       29.83R
BROOKSVILLE    SUNNY     74  55  51 W10       29.83S
CLEARWATER AIR FAIR      72  59  64 W5        29.83S
ST PETE CLEARW MOSUNNY   74  55  51 W10       29.83S
TAMPA INTL     MOSUNNY   75  56  51 W10       29.83F
TAMPA EXEC     SUNNY     77  52  41 W3        29.83S
PLANT CITY     SUNNY     77  54  44 W13       29.84S
MACDILL AFB    MOSUNNY   74  58  55 W6        29.83S
PETER O KNIGHT CLOUDY    77  59  53 W5        29.83F
ST PETERSBURG  MOSUNNY   73  57  57 NW8       29.82S
SARASOTA       SUNNY     74  56  53 W9        29.83S
VENICE         FAIR      75  59  57 W8        29.85S

STATION/POSITION SKY/WX   TEMP    WIND        PRES    WAVE   SWELL
                          AIR SEA DIR/SP/G            HT/PER HT/PER
                          (F)     (DEG/KT/KT) (MB)    (FT/S) (FT/S)
27.3N   84.2W                 74                N/A     3/ 6
CLEARWATER BEACH           72 78  240/  5/  9 1010.3F
MIDDLE TAMPA BAY           72     290/  8/ 10 1010.5F
VENICE                     73 78  300/  7/  8 1010.2S

$$
FLZ066-069-070-075>078-162-262-165-265-260000-
SOUTHWEST FLORIDA AND KEYS

CITY           SKY/WX    TMP DP  RH WIND       PRES   REMARKS
PUNTA GORDA    SUNNY     76  55  48 W15       29.85R
FT MYERS       SUNNY     77  56  48 W6        29.83S
SOUTHWEST INTL SUNNY     79  55  44 W8        29.83
NAPLES         MOSUNNY   75  58  55 VRB5      29.84F
MARATHON       SUNNY     78  65  63 W6        29.85S
KEY WEST NAS   MOSUNNY   78  64  61 NW9       29.85S
KEY WEST INTL  SUNNY     78  66  66 NW8       29.85S

STATION/POSITION SKY/WX   TEMP    WIND        PRES    WAVE   SWELL
                          AIR SEA DIR/SP/G            HT/PER HT/PER
                          (F)     (DEG/KT/KT) (MB)    (FT/S) (FT/S)
NAPLES                        78  270/  4/  6 1010.5F
26.0N   85.6W              75     210/  4/  6 1009.5
DRY TORTUGAS               78     250/  4/  5 1010.7F
SAND KEY                   76     310/  6/  7 1011.3F
LONG KEY                   76 80  290/  6/  7 1011.1F
MOLASSES REEF              76 78  280/ 11/ 12 1011.3R

$$
FLZ067-068-071>074-168-172>174-260000-
SOUTHEAST FLORIDA

CITY           SKY/WX    TMP DP  RH WIND       PRES   REMARKS
W PALM BEACH   PTSUNNY   80  55  42 SW10      29.82S
BOCA RATON     CLOUDY    79  64  61 VRB3      29.82S
FT LAUDER-EXEC PTCLDY    83  54  36 SW6       29.81S
FT LAUDERDALE  MOCLDY    81  56  42 W9        29.81S
POMPANO BEACH  MOCLDY    80  62  54 VRB7      29.81S
PEMBROKE PINES PTSUNNY   81  56  42 W14       29.83S
OPA LOCKA      MOSUNNY   78  56  46 W13       29.82S
MIAMI          MOSUNNY   81  55  40 W12       29.83R
WEST KENDALL   SUNNY     79  56  45 W13       29.84R
HOMESTEAD      SUNNY     79  58  48 W12       29.84R

STATION/POSITION SKY/WX   TEMP    WIND        PRES    WAVE   SWELL
                          AIR SEA DIR/SP/G            HT/PER HT/PER
                          (F)     (DEG/KT/KT) (MB)    (FT/S) (FT/S)
PORT EVERGLADES            79     160/  4/  6 1009.6R
VIRGINIA KEY               80 79  230/ 12/ 15 1009.2R
LAKE WORTH                 76 78  150/ 12/ 13 1010.5S
FOWEY ROCKS                80 78  260/ 15/ 16 1010.9R
SETTLEMENT POINT           75     190/  8/  9 1010.7R

$$




USA.gov is the U.S. government's official web portal to all federal, state and local government web resources and services.